Weather in Manzanillo

Mexico     19°02′57″N   104°19′05″W
temp.,
°C
wind,
m/s
gust,
m/s
humid.,
%
clouds,
%
prec.,
mm/h
press.,
hPa
HPBL,
m
11 may, tue
tue1101:00+25nne1186100 0.1 101136
04:00+24e118299 0.0 100960
07:00+24nne118151 0.0 101050
10:00+28s116482 0.0 1012371
13:00+29s4360100 0.0 1011746
16:00+28ssw3363100 0.0 1009641
19:00+27wsw2270100 0.0 1009435
22:00+25wnw1183100 0.0 101226
12 may, wed
wed1201:00+25ne1182100 0.0 101315
04:00+24nne117955 0.0 101144
07:00+24n1175100 0.0 101145
10:00+28sw11595 0.0 1013361
13:00+29sw435871 0.0 1012750
16:00+29wsw556089 0.0 1010675
19:00+28w4465100 0.0 1010444
22:00+25wnw228072 0.0 101178
13 may, thu
thu1301:00+25nnw127836 0.0 101260
04:00+24ne117636 0.1 101177
07:00+24ene227948 0.6 101258
10:00+26ssw117098 1.3 1013243
13:00+29ssw326085 1.3 1012648
16:00+29sw336317 0.0 1010676
19:00+27w347154 0.5 1010413
22:00+25ese118451 0.6 101290
14 may, fri
fri1401:00+25nw1184100 0.6 1012110
04:00+24e2287100 1.6 101295
07:00+24e228630 1.9 101294
10:00+27s116984 0.4 1013332
13:00+28ssw43625 0.4 1012692
16:00+29sw3363100 0.9 1011664
19:00+28w4567100 1.0 1011550
22:00+26wsw1281100 0.0 1012112
15 may, sat
sat1501:00+25nw238360 0.1 1012133
04:00+25wnw118025 0.0 101266
07:00+25ene11804 0.0 101258
10:00+28sse22675 0.0 1013411
13:00+29ssw43620 0.0 1012744
16:00+29sw336214 0.1 1011654
19:00+28wsw44638 0.1 1011491
22:00+25wnw23775 0.0 1012131